Regional Weather Roundup
Issued by NWS Bismarck, ND

Home | Current Version | Previous Version | Text Only | Print | Product List | Glossary On
Versions: 1 2 3 4 5 6 7 8 9 10 11 12 13 14 15 16 17 18 19 20 21 22 23 24 25 26 27 28 29 30 31 32 33 34 35 36 37 38 39 40 41 42 43 44 45 46 47 48 49 50
000
ASUS43 KBIS 230059
RWRBIS

NWR BROADCAST TEXT
NATIONAL WEATHER SERVICE BISMARCK ND
800 PM CDT MON SEP 22 2014

NOTE: "FAIR" INDICATES FEW OR NO CLOUDS BELOW 12,000 FEET WITH NO
SIGNIFICANT WEATHER AND/OR OBSTRUCTIONS TO VISIBILITY.


CITY           SKY/WX    TMP DP  RH WIND       PRES   REMARKS
WILLISTON      CLEAR     76  48  37 SE6       29.86F
MINOT          CLEAR     66  47  50 E8        29.92R
MINOT AFB      NOT AVBL
BISMARCK       PTCLDY    66  48  52 E10       29.95S
DICKINSON      NOT AVBL
GARRISON         N/A     68  52  56 SE6       29.93S
HETTINGER ARPT PTCLDY    69  50  50 E12       29.91F
JAMESTOWN      NOT AVBL
CARRINGTON     FAIR      66  48  52 S10       30.01R
CROSBY         FAIR      64  50  59 SE5       29.89S
HARVEY         FAIR      68  48  49 SE7       29.97S
HAZEN          FAIR      68  46  45 E8        29.92S
LINTON         FAIR      70  50  49 SE12G17   29.96S
MANDAN         FAIR      66  48  52 E9        29.95F
OAKES            N/A     59  50  72 SE10      30.04S
RUGBY          FAIR      68  46  45 SE9       29.96S
WATFORD CITY   FAIR      73  48  40 SE12      29.87R
$$

CITY           SKY/WX    TMP DP  RH WIND       PRES   REMARKS
GRAND FORKS    CLEAR     65  49  56 SE7       30.01S
GRAND FORKS AF NOT AVBL
DEVILS LAKE    CLEAR     64  50  59 SE9       29.98S
FARGO          CLEAR     69  47  45 S7        30.04S
CAVALIER       FAIR      63  50  63 S5        29.99S
GRAFTON        FAIR      63  50  63 SE9       30.00S
GWINNER        CLEAR     63  48  59 S8        30.06S
LANGDON        FAIR      61  45  55 SE10      30.01S
ROLLA          FAIR      64  45  48 S8        29.99S
$$

CITY           SKY/WX    TMP DP  RH WIND       PRES   REMARKS
ABERDEEN       CLEAR     63  48  58 SE9       30.03F
MOBRIDGE       CLEAR     72  52  49 S12       29.94R
RAPID CITY     LGT RAIN  70  51  51 SW13      29.92R
GLASGOW        CLEAR     75  49  39 CALM      29.82F
SIDNEY         CLEAR    N/A N/A N/A S8        29.86S
WOLF POINT     CLEAR     76  50  40 E3        29.82F
GLENDIVE       MOCLDY    66  52  59 NE9       29.86F
MILES CITY     PTCLDY    73  49  42 NW6       29.84S
BAKER          PTCLDY    67  51  56 E7        29.89F
$$

CITY           SKY/WX    TMP DP  RH WIND       PRES   REMARKS
BILLINGS       MOCLDY    79  45  29 NW10      29.90S
GREAT FALLS    PTCLDY    74  49  41 SW10      29.88S
$$



USA.gov is the U.S. government's official web portal to all federal, state and local government web resources and services.